Погода в Суворово

Украина / Одесская область     45°34′46″N   28°59′07″E
темп.,
°C
ветер,
м/с
пор.,
м/с
влажн.,
%
обл.,
%
осадки,
мм/ч
давл.,
гПа
погр.,
м
21 января, чт
чт2123:00−2юз118573 0.0 102121
02:00−2зюз018636 0.0 102221
05:00−2ююв22860 0.0 102221
08:00−2юв238728 0.0 102221
11:00+3ю2381100 0.0 1023137
14:00+5ююз357776 0.0 1021340
17:00+2ю34847 0.0 102243
20:00+2ю34834 0.0 102132
22 января, пт
пт2223:00+2ююз338129 0.0 102124
02:00+1ююз348145 0.0 102030
05:00+1ю348253 0.0 101938
08:00+2ююз348275 0.0 101966
11:00+6ююз476755 0.0 1019262
14:00+8ю486658 0.0 1017304
17:00+4ю488199 0.0 1016107
20:00+3ююз458095 0.0 101575
23 января, сб
сб2323:00+3ю458540 0.0 101480
02:00+3ю458653 0.0 101361
05:00+3ю458330 0.0 101366
08:00+3ююз338543 0.0 101239
11:00+8ю478243 0.0 1012253
14:00+10ю587469 0.0 1010457
17:00+9ю5118664 0.0 1009222
20:00+9ю8168765 0.0 1008451
24 января, вс
вс2423:00+9ю9188497 0.0 1008658
02:00+9ю9188498 0.0 1007771
05:00+9ю111985100 1.3 1004846
08:00+10ю111884100 3.1 1003883
11:00+12ююз8116667 0.0 1004981
14:00+13ююз585433 0.0 10031129
17:00+10ююв59831 0.2 1003211
20:00+8ююз358130 0.3 1004103
25 января, пн
пн2523:00+7ююз34794 0.0 100553
02:00+6ююв348318 0.0 100567
05:00+6ююв5129458 0.0 1003275
08:00+9ю8169163 0.1 1002713
11:00+10ююв91884100 2.5 998924
14:00+10ю121985100 5.9 994899
17:00+9ююз71389100 6.0 993642
20:00+5юз10196394 6.1 9951004